FW9558 Weather Reports


time (UTC)temp
C
wind
direction
speed
KPH
gust
KPH
rain 1hr
cm
rain 24hr
cm
rain mn
cm
humidity
%
barometer
mb
20260504190044 14 0 0.0 4.8 0.00 1.96 1.55 89 1011.9
20260504184533 14 0 0.0 3.2 0.00 1.96 1.55 88 1011.8
20260504183035 14 0 0.0 3.2 0.00 1.96 1.55 88 1011.7
20260504181544 14 51 1.6 8.0 0.00 1.96 1.55 87 1011.6
20260504180039 14 32 0.0 4.8 0.00 1.96 1.55 88 1011.8
20260504174538 14 0 1.6 6.4 0.00 1.96 1.55 87 1011.6
20260504173036 14 0 0.0 4.8 0.00 1.96 1.55 86 1011.9
20260504171537 14 0 0.0 6.4 0.00 1.96 1.55 86 1011.8
20260504081541 12 0 0.0 3.2 0.15 0.94 0.28 94 1012.6
20260504044543 12 0 0.0 1.6 0.00 0.79 0.10 95 1011.7
20260504043036 12 0 0.0 3.2 0.00 0.79 0.10 95 1011.8
20260504041540 12 0 0.0 0.0 0.00 0.79 0.10 95 1011.8
20260504040058 13 0 0.0 0.0 0.00 0.79 0.10 95 1011.9
20260504034553 13 0 0.0 0.0 0.00 0.79 0.10 95 1012.0
20260504033034 13 0 0.0 0.0 0.00 0.79 0.10 95 1012.1
20260504031536 13 0 0.0 0.0 0.00 0.79 0.10 95 1012.0
20260504030058 12 0 0.0 0.0 0.00 0.79 0.10 95 1012.0
20260504024535 12 0 0.0 0.0 0.00 0.84 0.10 95 1012.1
20260504023039 13 0 0.0 0.0 0.00 0.84 0.10 95 1012.1
20260504021538 12 0 0.0 0.0 0.00 0.84 0.10 95 1012.1
20260504020036 13 0 0.0 0.0 0.00 0.84 0.10 94 1012.1
20260504014536 13 0 0.0 0.0 0.00 1.30 0.10 94 1012.1
20260504013049 13 0 0.0 0.0 0.00 1.30 0.10 94 1012.2
20260504011541 13 0 0.0 0.0 0.00 1.30 0.10 94 1012.5
20260504010040 13 0 0.0 0.0 0.00 1.30 0.10 94 1012.4
20260504004539 13 0 0.0 0.0 0.00 1.30 0.10 94 1012.5
20260504003036 13 0 0.0 0.0 0.00 1.30 0.10 94 1012.5
20260504001536 13 0 0.0 1.6 0.00 1.30 0.10 94 1012.5
20260504000036 13 0 0.0 0.0 0.00 1.30 0.10 93 1012.8
20260503234535 13 0 0.0 0.0 0.00 1.35 0.10 93 1012.9
20260503233040 13 0 0.0 0.0 0.00 1.35 0.10 93 1012.9
20260503231536 13 0 0.0 0.0 0.08 1.35 0.10 93 1013.0
20260503230037 13 0 0.0 0.0 0.08 1.35 0.10 92 1012.9
20260503224533 13 0 0.0 0.0 0.23 1.40 0.10 92 1012.9
20260503223041 13 0 0.0 0.0 0.48 1.37 0.08 91 1013.1
20260503221543 13 0 0.0 0.0 0.41 1.30 0.00 90 1013.2
20260503220040 14 0 0.0 3.2 0.38 1.27 0.00 89 1013.0
20260503214539 15 0 0.0 0.0 0.28 1.17 1.14 87 1013.1
20260503213041 15 0 0.0 4.8 0.00 0.89 0.86 85 1013.0
20260503211537 15 0 1.6 6.4 0.00 0.89 0.86 84 1012.9
20260503210039 15 0 0.0 6.4 0.00 0.89 0.86 83 1012.9
20260503204546 15 0 1.6 6.4 0.00 0.89 0.86 83 1013.0
20260503203042 15 278 0.0 3.2 0.00 0.89 0.86 83 1012.7
20260503201539 15 0 0.0 6.4 0.00 0.89 0.86 83 1012.7
20260503200037 15 271 1.6 6.4 0.00 0.89 0.86 83 1012.4
20260503194538 15 0 1.6 9.7 0.00 0.99 0.86 82 1012.0
20260503193036 16 264 1.6 9.7 0.00 0.99 0.86 82 1011.9
20260503191538 16 0 0.0 6.4 0.00 0.99 0.86 81 1011.6